Weather History for Bedford, MA

Change the Weather History Date:

Tuesday, November 5, 2013

  Actual Average Record
Temperature  
Mean Temperature 34 °F -  
Max Temperature 48 °F 54 °F 76 °F (1961)
Min Temperature 21 °F 35 °F 21 °F (2013)
Degree Days  
Heating Degree Days 30    
Moisture  
Dew Point 25 °F    
Average Humidity 69    
Maximum Humidity 92    
Minimum Humidity 41    
Precipitation  
Precipitation 0.00 in - - ()
Sea Level Pressure  
Sea Level Pressure 30.67 in    
Wind  
Wind Speed 1 mph (South)    
Max Wind Speed 7 mph    
Max Gust Speed 16 mph    
Visibility 10 miles    
Events      
Averages and records for this station are not official NWS values.
T = Trace of Precipitation, MM = Missing Value Source: NWS Daily Summary

Daily Weather History Graph

Daily Weather History Graph

Search for Another Location

Airport:

Trip Planner

Search our weather history database for the weather conditions in past years. The results will help you decide how hot, cold, wet, or windy it might be!

Date:

Astronomy

Nov. 05, 2013 Rise Set
Actual Time 6:23 AM EST 4:33 PM EST
Civil Twilight 5:54 AM EST 5:02 PM EST
Nautical Twilight 5:20 AM EST 5:35 PM EST
Astronomical Twilight 4:48 AM EST 6:08 PM EST
Moon 8:37 AM EST (11/5) 6:29 PM EST (11/5)
Length of Visible Light 11h 08m
Length of Day
10h 09m
Waxing Crescent, 6% of the Moon is Illuminated
Nov 5
Waxing Crescent
Nov 10
First Quarter
Nov 17
Full
Nov 25
Last Quarter
Dec 2
New

Hourly Weather History & Observations

Time (EST) Temp. Windchill Dew Point Humidity Pressure Visibility Wind Dir Wind Speed Gust Speed Precip Events Conditions
12:56 AM 21.9 °F - 18.0 °F 85% 30.74 in 10.0 mi Calm Calm - N/A   Clear
1:56 AM 21.0 °F - 18.0 °F 88% 30.74 in 10.0 mi Calm Calm - N/A   Clear
2:56 AM 21.9 °F - 19.0 °F 89% 30.75 in 10.0 mi Calm Calm - N/A   Partly Cloudy
3:56 AM 23.0 °F - 19.9 °F 88% 30.74 in 10.0 mi Calm Calm - N/A   Clear
4:56 AM 24.1 °F - 19.9 °F 84% 30.74 in 10.0 mi Calm Calm - N/A   Clear
5:56 AM 23.0 °F - 21.0 °F 92% 30.75 in 10.0 mi Calm Calm - N/A   Clear
6:56 AM 24.1 °F - 21.0 °F 88% 30.74 in 10.0 mi Calm Calm - N/A   Clear
7:56 AM 28.0 °F - 23.0 °F 81% 30.76 in 10.0 mi Calm Calm - N/A   Mostly Cloudy
8:56 AM 30.9 °F - 25.0 °F 79% 30.76 in 10.0 mi Calm Calm - N/A   Clear
9:56 AM 41.0 °F - 23.0 °F 49% 30.74 in 10.0 mi Calm Calm - N/A   Clear
10:56 AM 45.0 °F 41.8 °F 26.1 °F 48% 30.71 in 10.0 mi Variable 5.8 mph 16.1 mph N/A   Clear
11:56 AM 46.0 °F - 26.1 °F 46% 30.69 in 10.0 mi Calm Calm - N/A   Clear
12:56 PM 48.0 °F - 27.0 °F 44% 30.67 in 10.0 mi WSW 4.6 mph - N/A   Clear
1:56 PM 48.9 °F - 26.1 °F 41% 30.64 in 10.0 mi Variable 3.5 mph - N/A   Clear
2:56 PM 48.9 °F - 26.1 °F 41% 30.62 in 10.0 mi SSE 6.9 mph - N/A   Clear
3:56 PM 46.9 °F - 26.1 °F 44% 30.61 in 10.0 mi SSW 3.5 mph - N/A   Clear
4:56 PM 41.0 °F 36.4 °F 27.0 °F 57% 30.60 in 10.0 mi East 6.9 mph - N/A   Clear
5:56 PM 39.0 °F - 30.0 °F 70% 30.61 in 10.0 mi Calm Calm - N/A   Clear
6:56 PM 39.9 °F - 30.9 °F 70% 30.61 in 10.0 mi Calm Calm - N/A   Clear
7:56 PM 37.0 °F - 30.0 °F 76% 30.61 in 10.0 mi Calm Calm - N/A   Clear
8:56 PM 36.0 °F - 28.9 °F 76% 30.60 in 10.0 mi Calm Calm - N/A   Clear
9:56 PM 39.9 °F - 30.0 °F 68% 30.58 in 10.0 mi Calm Calm - N/A   Clear
10:56 PM 39.0 °F 36.8 °F 30.9 °F 73% 30.57 in 10.0 mi SW 3.5 mph - N/A   Clear
11:56 PM 39.9 °F - 32.0 °F 73% 30.55 in 10.0 mi Calm Calm - N/A   Clear